Vorticity
5 5 5 6 6 4 4 5 6 7 8 7 7 5 6 7 8 9 9 9 9 8 8 8 9 9 8 6 5 5 7 7 5 4 5 3 5 6 6 6 6 6 7
6 6 5 4 6 5 5 5 6 6 5 4 4 4 5 6 5 6 5 4 4 5 5 5 4 4 4 7 10 11 10 9 10 10 4 3 4 3 4 6 6 6 6
6 5 5 5 5 4 4 6 5 3 2 3 4 6 6 5 6 5 4 6 6 5 7 9 11 12 12 15 9 8 7 8 9 6 8 12 9 5 4 5 6 7 6
6 6 4 4 4 4 4 4 4 4 5 5 5 4 4 5 8 10 9 8 7 12 16 3 13 -13 14 -8 6 11 9 10 11 9 9 7 10 11 11 10 6 4 6
5 5 5 5 5 5 5 5 4 5 5 4 5 10 12 11 11 10 11 14 12 10 9 2 8 10 4 19 16 2 17 17 16 15 12 13 15 8 10 13 13 11 7
6 6 6 7 6 6 5 4 4 5 8 14 13 12 12 11 10 10 8 10 13 7 9 14 12 4 12 3 29 17 -19 -0 -5 0 17 17 7 12 12 12 12 10 10
7 8 6 6 5 4 4 7 12 15 12 11 10 8 6 8 10 9 12 10 9 9 5 9 12 12 9 7 12 11 15 4 2 18 -5 -12 6 8 -7 25 -2 13 31
7 6 5 5 6 9 16 16 11 12 10 8 8 9 11 8 8 8 10 11 11 9 9 7 5 4 6 6 4 5 2 7 10 12 14 10 10 22 19 2 -6 10 -6
5 6 7 12 18 12 9 11 10 9 9 10 12 11 14 11 14 7 7 6 6 4 4 5 4 4 5 6 6 9 14 9 8 8 6 7 7 -1 1 31 24 5 15
7 11 17 7 8 10 11 10 9 9 10 10 10 8 8 7 7 6 5 5 6 6 5 6 6 8 8 9 10 14 12 18 15 17 24 16 18 18 32 21 5 10 10
13 11 7 9 8 10 9 8 9 10 9 8 8 7 6 6 5 3 4 4 4 7 8 8 9 8 11 15 21 23 18 21 27 10 2 20 12 8 15 -5 19 23 19
11 7 6 7 8 8 8 8 8 7 7 8 6 5 6 5 4 5 8 7 6 6 7 7 7 9 15 13 13 17 14 24 29 21 7 -15 -11 14 30 21 0 3 25
8 6 6 8 9 7 7 7 7 7 7 7 5 5 5 4 5 5 6 7 7 6 7 7 8 10 15 14 18 9 21 8 14 23 24 27 10 -7 4 -4 -1 7 4
7 5 7 8 8 7 8 7 7 6 5 6 5 4 4 4 5 7 7 7 7 7 7 8 11 14 14 10 9 17 11 18 17 13 17 26 27 38 47 25 14 12 8
6 6 7 9 8 8 7 6 6 6 6 6 5 5 5 5 6 5 6 8 8 5 4 8 12 15 15 15 16 16 8 14 11 13 15 18 23 19 18 22 46 37 20
7 8 8 10 8 7 7 6 6 6 6 7 7 6 5 6 7 8 9 9 12 12 -4 16 14 15 17 17 17 13 14 11 13 11 10 10 12 20 23 12 11 22 37
8 7 8 11 8 8 7 7 6 6 7 9 8 6 6 8 9 9 8 10 10 15 10 3 15 14 13 14 15 15 16 13 9 5 8 7 9 9 7 17 12 15 0
7 7 10 10 9 8 7 6 7 8 9 9 8 8 9 10 10 10 10 10 12 14 15 9 10 11 8 12 14 11 11 5 7 7 2 7 13 11 10 9 10 18 10
7 8 11 9 8 7 7 7 9 9 9 9 9 10 10 11 11 11 10 12 12 9 10 8 7 9 12 13 12 13 19 7 -0 14 21 19 19 19 21 19 21 22 10
7 11 11 9 7 7 8 10 9 10 10 10 10 11 12 11 12 13 11 11 12 9 10 13 16 6 8 14 11 -12 3 10 17 21 18 18 20 22 21 9 15 6 8
11 12 10 8 7 9 10 10 10 10 10 11 12 12 13 13 13 12 14 10 9 13 18 8 3 3 -5 -2 6 9 22 20 16 18 18 17 17 14 19 20 21 15 15
13 11 8 8 9 9 10 10 9 9 11 13 13 12 13 13 11 9 9 12 16 14 8 5 0 1 8 20 29 13 16 19 15 15 15 13 13 19 14 23 17 21 15
10 7 7 7 10 10 9 9 9 11 13 14 14 13 12 11 11 10 11 15 15 5 2 5 9 30 25 15 15 17 14 13 12 9 12 10 12 10 11 15 13 16 7
7 6 8 11 9 8 8 9 11 12 13 13 13 12 10 10 12 14 21 7 13 9 9 30 17 19 16 21 19 15 11 11 11 8 9 7 8 13 14 13 7 18 38
6 8 9 9 7 7 9 12 13 11 11 12 11 11 12 12 14 15 13 9 0 13 17 20 18 21 16 13 13 11 11 8 8 7 9 11 12 14 14 14 24 40 20
7 9 9 6 7 9 10 12 13 14 11 12 10 11 10 11 11 27 6 5 20 14 14 15 18 11 12 11 11 10 11 12 13 17 18 15 12 13 14 16 18 20 29
Height
3114 3113 3112 3110 3107 3106 3104 3103 3101 3100 3097 3096 3093 3091 3089 3087 3085 3082 3081 3079 3078 3077 3075 3073 3071 3069 3067 3065 3063 3062 3061 3060 3060 3060 3059 3059 3058 3058 3059 3059 3060 3060 3061
3111 3110 3108 3106 3105 3103 3101 3099 3097 3095 3092 3090 3087 3085 3084 3082 3079 3077 3074 3072 3071 3069 3067 3065 3062 3060 3058 3056 3054 3052 3052 3050 3050 3050 3049 3049 3048 3047 3048 3048 3049 3050 3050
3109 3107 3104 3103 3101 3099 3097 3096 3093 3090 3088 3085 3082 3080 3077 3076 3074 3072 3068 3065 3062 3059 3057 3055 3054 3052 3049 3047 3044 3042 3041 3040 3039 3038 3037 3037 3036 3036 3036 3036 3037 3038 3038
3105 3104 3102 3100 3098 3095 3092 3090 3088 3085 3082 3078 3075 3074 3071 3069 3066 3062 3058 3054 3052 3050 3047 3044 3043 3041 3040 3038 3036 3033 3031 3029 3028 3027 3026 3025 3024 3023 3023 3023 3023 3024 3025
3102 3100 3098 3096 3093 3090 3088 3085 3082 3079 3076 3072 3069 3066 3062 3059 3057 3051 3049 3047 3044 3041 3038 3034 3033 3030 3027 3027 3026 3023 3020 3017 3016 3014 3012 3011 3010 3010 3009 3009 3009 3009 3010
3098 3096 3093 3091 3088 3084 3082 3079 3077 3074 3069 3063 3060 3057 3054 3051 3047 3044 3040 3037 3034 3030 3027 3025 3021 3018 3017 3014 3012 3012 3007 3003 3003 3002 2998 2996 2995 2994 2993 2993 2993 2994 2994
3094 3092 3089 3086 3083 3079 3076 3072 3069 3065 3062 3056 3051 3049 3046 3043 3039 3036 3030 3027 3024 3022 3019 3015 3011 3008 3004 3002 3000 2999 2997 2992 2989 2986 2983 2979 2979 2978 2977 2976 2976 2978 2979
3090 3087 3084 3081 3077 3074 3070 3066 3062 3058 3054 3048 3042 3036 3031 3032 3027 3024 3020 3016 3013 3010 3007 3004 3001 2998 2993 2989 2986 2983 2981 2980 2974 2969 2964 2962 2962 2961 2960 2960 2959 2961 2963
3085 3082 3078 3075 3071 3067 3064 3060 3056 3051 3047 3044 3038 3028 3019 3012 3007 3011 3010 3007 3003 3000 2997 2993 2990 2985 2980 2976 2972 2968 2963 2954 2952 2951 2949 2947 2945 2943 2943 2943 2944 2942 2943
3080 3076 3072 3069 3065 3061 3058 3053 3049 3044 3037 3032 3029 3026 3021 3012 3002 2987 2991 2992 2990 2987 2983 2978 2973 2969 2963 2957 2953 2950 2942 2936 2933 2931 2929 2929 2927 2923 2921 2922 2923 2923 2919
3075 3071 3068 3064 3060 3055 3051 3046 3041 3036 3030 3025 3020 3015 3012 3008 3002 2992 2975 2975 2975 2972 2968 2963 2957 2952 2947 2939 2933 2929 2923 2921 2916 2916 2913 2909 2904 2905 2902 2901 2899 2900 2900
3069 3065 3061 3057 3052 3047 3043 3038 3033 3028 3023 3019 3014 3009 3003 2996 2990 2983 2974 2966 2957 2955 2951 2947 2939 2933 2926 2918 2913 2908 2906 2904 2901 2895 2893 2890 2885 2883 2879 2878 2879 2882 2881
3062 3059 3055 3050 3045 3040 3035 3030 3026 3020 3015 3010 3005 3000 2995 2990 2982 2975 2965 2954 2945 2942 2938 2937 2928 2920 2909 2902 2896 2890 2887 2881 2878 2877 2873 2869 2865 2863 2860 2859 2860 2862 2862
3056 3052 3047 3042 3037 3032 3027 3022 3017 3012 3006 3001 2996 2991 2984 2979 2972 2965 2955 2943 2930 2927 2926 2920 2912 2903 2892 2885 2880 2875 2869 2865 2861 2856 2853 2851 2848 2844 2841 2843 2840 2840 2840
3049 3044 3040 3035 3030 3024 3019 3013 3008 3003 2998 2993 2987 2981 2974 2969 2961 2954 2945 2936 2924 2909 2902 2903 2891 2890 2880 2871 2864 2857 2853 2850 2846 2841 2837 2834 2831 2827 2824 2821 2818 2817 2819
3042 3037 3032 3027 3022 3016 3011 3005 3000 2995 2988 2983 2976 2968 2962 2956 2948 2941 2933 2924 2914 2901 2886 2890 2879 2871 2865 2857 2852 2843 2839 2836 2831 2827 2823 2819 2815 2812 2809 2806 2803 2800 2800
3035 3030 3025 3020 3014 3009 3004 2997 2992 2985 2977 2971 2965 2956 2950 2942 2935 2927 2918 2909 2900 2890 2876 2872 2865 2859 2852 2844 2838 2832 2825 2821 2817 2814 2810 2806 2802 2797 2794 2791 2789 2787 2786
3027 3022 3017 3012 3007 3001 2995 2988 2980 2974 2966 2959 2952 2944 2937 2930 2923 2914 2905 2896 2887 2878 2866 2855 2852 2844 2838 2832 2824 2817 2813 2808 2804 2800 2795 2792 2788 2783 2778 2774 2773 2773 2773
3020 3015 3009 3004 2998 2993 2986 2978 2970 2963 2955 2948 2941 2933 2925 2917 2909 2901 2892 2883 2875 2866 2856 2845 2835 2832 2825 2819 2811 2806 2800 2796 2792 2785 2780 2776 2770 2766 2764 2761 2759 2759 2759
3013 3007 3002 2996 2990 2983 2976 2968 2960 2952 2946 2938 2930 2921 2913 2905 2896 2888 2880 2870 2860 2852 2844 2836 2827 2819 2813 2807 2802 2792 2784 2783 2774 2770 2765 2760 2756 2753 2749 2747 2745 2744 2745
3005 2999 2993 2987 2981 2974 2966 2956 2949 2941 2934 2927 2919 2910 2902 2894 2886 2876 2867 2859 2851 2843 2835 2828 2819 2811 2801 2795 2789 2781 2772 2765 2760 2756 2750 2748 2743 2740 2739 2736 2734 2733 2732
2996 2990 2985 2977 2970 2963 2955 2947 2939 2931 2923 2915 2907 2899 2890 2881 2873 2866 2859 2851 2844 2836 2828 2819 2809 2800 2791 2783 2775 2768 2760 2752 2744 2747 2739 2734 2732 2729 2726 2724 2722 2721 2719
2988 2982 2976 2969 2961 2954 2946 2939 2930 2921 2913 2905 2895 2887 2879 2870 2862 2854 2848 2839 2832 2826 2819 2810 2797 2789 2778 2772 2765 2756 2750 2743 2737 2733 2729 2720 2722 2716 2715 2712 2711 2709 2707
2980 2973 2967 2960 2951 2945 2937 2929 2919 2910 2902 2893 2885 2876 2867 2859 2852 2843 2835 2827 2821 2812 2806 2797 2787 2778 2771 2764 2757 2749 2742 2734 2729 2725 2721 2710 2711 2705 2703 2699 2696 2694 2690
2972 2965 2958 2950 2943 2936 2926 2917 2907 2898 2890 2882 2874 2865 2857 2848 2840 2834 2826 2817 2807 2799 2793 2785 2777 2770 2763 2756 2750 2741 2734 2726 2718 2715 2712 2703 2699 2692 2690 2686 2683 2680 2679
2963 2956 2949 2943 2935 2925 2916 2906 2896 2885 2878 2870 2863 2853 2846 2839 2831 2825 2818 2806 2794 2787 2778 2772 2767 2762 2755 2749 2743 2736 2726 2716 2709 2701 2703 2694 2689 2685 2676 2676 2674 2671 2670